Weather History for Beaufort, NC

Change the Weather History Date:

Tuesday, November 2, 2010

  Actual Average Record
Temperature  
Mean Temperature 58 °F -  
Max Temperature 64 °F 73 °F 83 °F (1986)
Min Temperature 52 °F 54 °F 31 °F (1993)
Degree Days  
Heating Degree Days 8    
Growing Degree Days 8 (Base 50)    
Moisture  
Dew Point 44 °F    
Average Humidity 64    
Maximum Humidity 72    
Minimum Humidity 50    
Precipitation  
Precipitation 0.00 in - - ()
Sea Level Pressure  
Sea Level Pressure 30.30 in    
Wind  
Wind Speed 11 mph (NE)    
Max Wind Speed 17 mph    
Max Gust Speed 26 mph    
Visibility 10 miles    
Events      
Averages and records for this station are not official NWS values.
T = Trace of Precipitation, MM = Missing Value Source: NWS Daily Summary

Daily Weather History Graph

Daily Weather History Graph

Search for Another Location

Airport:

Trip Planner

Search our weather history database for the weather conditions in past years. The results will help you decide how hot, cold, wet, or windy it might be!

Date:

Astronomy

Nov. 02, 2010 Rise Set
Actual Time 7:28 AM EDT 6:11 PM EDT
Civil Twilight 7:01 AM EDT 6:37 PM EDT
Nautical Twilight 6:32 AM EDT 7:07 PM EDT
Astronomical Twilight 6:02 AM EDT 7:37 PM EDT
Moon 3:21 AM EDT (11/2) 3:41 PM EDT (11/2)
Length of Visible Light 11h 35m
Length of Day
10h 43m
Waning Crescent, 17% of the Moon is Illuminated
Nov 2
Waning Crescent
Nov 6
New
Nov 13
First Quarter
Nov 21
Full
Nov 28
Last Quarter

Hourly Weather History & Observations

Time (EDT) Temp. Dew Point Humidity Pressure Visibility Wind Dir Wind Speed Gust Speed Precip Events Conditions
12:56 AM 53.1 °F 44.1 °F 71% 30.31 in 10.0 mi NE 6.9 mph - N/A   Clear
1:56 AM 52.0 °F 43.0 °F 71% 30.31 in 10.0 mi NNE 10.4 mph - N/A   Clear
2:56 AM 52.0 °F 42.1 °F 69% 30.31 in 10.0 mi NNE 11.5 mph - N/A   Clear
3:56 AM 52.0 °F 42.1 °F 69% 30.30 in 10.0 mi NNE 10.4 mph - N/A   Clear
4:56 AM 52.0 °F 42.1 °F 69% 30.31 in 10.0 mi NNE 11.5 mph - N/A   Clear
5:56 AM 52.0 °F 42.1 °F 69% 30.33 in 10.0 mi NNE 10.4 mph - N/A   Clear
6:56 AM 52.0 °F 43.0 °F 71% 30.32 in 10.0 mi NNE 11.5 mph - N/A   Clear
7:56 AM 52.0 °F 43.0 °F 71% 30.33 in 10.0 mi NNE 11.5 mph 18.4 mph N/A   Partly Cloudy
8:56 AM 54.0 °F 44.1 °F 69% 30.36 in 10.0 mi NNE 13.8 mph 19.6 mph N/A   Clear
9:56 AM 57.0 °F 44.1 °F 62% 30.35 in 10.0 mi NNE 15.0 mph 25.3 mph N/A   Clear
10:56 AM 57.9 °F 45.0 °F 62% 30.34 in 10.0 mi NE 8.1 mph 21.9 mph N/A   Clear
11:56 AM 62.1 °F 44.1 °F 52% 30.33 in 10.0 mi NE 16.1 mph 24.2 mph N/A   Clear
12:56 PM 63.0 °F 44.1 °F 50% 30.31 in 10.0 mi NE 17.3 mph 26.5 mph N/A   Scattered Clouds
1:56 PM 60.1 °F 44.1 °F 55% 30.30 in 10.0 mi NE 12.7 mph 23.0 mph N/A   Overcast
2:56 PM 59.0 °F 44.1 °F 58% 30.29 in 10.0 mi NE 17.3 mph 26.5 mph N/A   Overcast
3:56 PM 59.0 °F 42.1 °F 53% 30.28 in 10.0 mi NE 16.1 mph 24.2 mph N/A   Overcast
4:56 PM 57.9 °F 44.1 °F 60% 30.27 in 10.0 mi NE 15.0 mph 23.0 mph N/A   Overcast
5:56 PM 57.0 °F 44.1 °F 62% 30.27 in 10.0 mi NE 12.7 mph 21.9 mph N/A   Overcast
6:56 PM 57.0 °F 44.1 °F 62% 30.27 in 10.0 mi NE 11.5 mph 19.6 mph N/A   Overcast
7:56 PM 57.0 °F 45.0 °F 64% 30.27 in 10.0 mi NE 12.7 mph 21.9 mph N/A   Overcast
8:56 PM 55.9 °F 45.0 °F 67% 30.26 in 10.0 mi NNE 10.4 mph 17.3 mph N/A   Overcast
9:56 PM 55.9 °F 46.0 °F 69% 30.27 in 10.0 mi NE 6.9 mph - N/A   Overcast
10:56 PM 57.0 °F 48.0 °F 72% 30.26 in 10.0 mi NNE 9.2 mph - N/A   Overcast
11:56 PM 57.9 °F 48.0 °F 70% 30.23 in 10.0 mi NE 9.2 mph - N/A   Mostly Cloudy